Hourly Data Report for June 26, 2017

All times are specified in Local Standard Time (LST). Add 1 hour to adjust for Daylight Saving Time where and when it is observed.

KLEEFELD (MAFRI)
MANITOBA

49°31'04.000" N
96°54'04.000" W
246.50 m
5021500
71646
PTG

Download Data

Hourly Data (June 2017)
Hourly Data Report for June 26, 2017
Temp Definition
°C
Dew Point Temp Definition
°C
Rel Hum Definition
%
Wind Dir Definition
10's deg

Wind Spd Definition
km/h
Visibility Definition
km
Stn Press Definition
kPa
Hmdx Definition


Wind Chill Definition


Weather Definition


TIME
00:00 9.0 5.6 79 27 7   99.25     LegendNANA
01:00 8.3 5.4 82 26 8   99.24     LegendNANA
02:00 7.7 4.8 81 27 7   99.23     LegendNANA
03:00 7.6 5.0 83 28 10   99.22     LegendNANA
04:00 7.9 4.8 81 28 10   99.22     LegendNANA
05:00 7.1 4.3 83 26 6   99.23     LegendNANA
06:00 8.2 5.4 82 24 4   99.24     LegendNANA
07:00 12.4 7.2 71 28 10   99.25     LegendNANA
08:00 15.1 7.7 61 28 19   99.23     LegendNANA
09:00 17.6 8.2 54 28 17   99.21     LegendNANA
10:00 19.4 6.8 44 30 21   99.16     LegendNANA
11:00 20.6 4.7 35 30 23   99.13     LegendNANA
12:00 21.2 5.0 34 31 21   99.09     LegendNANA
13:00 21.9 5.8 35 31 20   99.04     LegendNANA
14:00 22.1 4.9 33 31 19   99.00     LegendNANA
15:00 21.8 3.0 29 30 18   98.95     LegendNANA
16:00 22.0 3.3 29 30 16   98.90     LegendNANA
17:00 21.9 4.1 31 30 11   98.84     LegendNANA
18:00 21.7 4.6 33 30 9   98.79     LegendNANA
19:00 21.3 4.6 34 26 8   98.73     LegendNANA
20:00 17.1 9.6 62 25 5   98.69     LegendNANA
21:00 14.8 8.2 64 19 7   98.66     LegendNANA
22:00 11.7 7.3 75 18 7   98.62     LegendNANA
23:00 10.6 6.5 76 17 8   98.57     LegendNANA

Notes on Data Quality.

Legend

  • E = Estimated
  • M = Missing
  • NA = Not Available
  • ‡ = Partner data that is not subject to review by the National Climate Archives
Date modified: